This is the latest recevied weather packets stored in our database for station/object HG8GL-14. If no packets are shown the sender has not sent any weather packets the latest 10 day(s).
| Time | Temp. | Humidity | Pressure | Rain* | Wind** | Luminosity | Snow |
|---|---|---|---|---|---|---|---|
| 1787927918 | 54.44° C | 4% | 1014.6 hPa | - | - | - | - |
| 1787927314 | 57.78° C | 3% | 1016.4 hPa | - | - | - | - |
| 1787926711 | 60° C | 2% | 1015.7 hPa | - | - | - | - |
| 1787926107 | 59.44° C | 2% | 1016.2 hPa | - | - | - | - |
| 1787925504 | 58.89° C | 2% | 1015.5 hPa | - | - | - | - |
| 1787924900 | 57.22° C | 3% | 1016.9 hPa | - | - | - | - |
| 1787924297 | 61.67° C | 1% | 1015.9 hPa | - | - | - | - |
| 1787923693 | 61.67° C | 100% | 1017.2 hPa | - | - | - | - |
| 1787923090 | 57.78° C | 3% | 1018.5 hPa | - | - | - | - |
| 1787922487 | 56.67° C | 3% | 1015.9 hPa | - | - | - | - |
| 1787921883 | 62.22° C | 1% | 1016.1 hPa | - | - | - | - |
| 1787921279 | 58.89° C | 1% | 1018.7 hPa | - | - | - | - |
| 1787918865 | 64.44° C | 100% | 1017.9 hPa | - | - | - | - |
| 1787918262 | 63.89° C | 100% | 1018.1 hPa | - | - | - | - |
| 1787917659 | 60° C | 2% | 1019.3 hPa | - | - | - | - |
| 1787917055 | 58.33° C | 3% | 1017.6 hPa | - | - | - | - |
| 1787916451 | 54.44° C | 3% | 1019 hPa | - | - | - | - |
| 1787915848 | 52.78° C | 5% | 1018.8 hPa | - | - | - | - |
| 1787915244 | 54.44° C | 4% | 1019.2 hPa | - | - | - | - |
| 1787914641 | 55° C | 4% | 1019.4 hPa | - | - | - | - |
| 1787914037 | 48.33° C | 7% | 1018.7 hPa | - | - | - | - |
| 1787911624 | 32.78° C | 21% | 1020 hPa | - | - | - | - |
| 1787911020 | 32.22° C | 23% | 1019.8 hPa | - | - | - | - |
| 1787908002 | 30.56° C | 25% | 1020.4 hPa | - | - | - | - |
| 1787906795 | 31.11° C | 24% | 1019.8 hPa | - | - | - | - |
* Rain since midnight (hover to see other rain measurements)
** Current wind speed in m/s (hover to see current wind gust speed)